Location: Bjelajci
(45.0103°N, 16.1758°E)
Time: 19:32:04
(UTC+00:00)

Cosmos 1025 Rocket - Pass Details

Date: 14 July 2020
Orbit: 593 x 619 km, 82.5° (Epoch: 06 August)

Event Time Altitude Azimuth Distance (km) Brightness Sun altitude
Rises 02:42:28 0° 357° (N) 2,885 7.1 -6.5°
Reaches altitude 10° 02:44:48 10° 4° (N) 1,971 6.3 -6.2°
Maximum altitude 02:48:58 44° 77° (ENE) 842 4.4 -5.6°
Drops below altitude 10° 02:53:05 10° 150° (SSE) 1,941 5.5 -5.1°
Sets 02:55:21 0° 157° (SSE) 2,834 6.3 -4.7°
